Location: Beuerbach
(48.1459°N, 10.9174°E)
Time: 03:12:05
(UTC+00:00)

Cosmos 1741 Rocket - Pass Details

Date: 23 May 2024
Orbit: 758 x 781 km, 74.0° (Epoch: 13 June)

Event Time Altitude Azimuth Distance (km) Brightness Sun altitude
Exits shadow 01:51:21 18° 224° (SW) 1,815 5.3 -12.6°
Maximum altitude 01:55:09 55° 297° (WNW) 917 4.3 -12.2°
Drops below altitude 10° 02:00:20 10° 16° (NNE) 2,324 7.7 -11.7°
Sets 02:02:47 0° 21° (NNE) 3,259 8.8 -11.4°
